DW2633 Weather Reports


time (UTC)temp
C
wind
direction
speed
KPH
gust
KPH
rain 1hr
cm
rain 24hr
cm
rain mn
cm
humidity
%
barometer
mb
20260831202012 22 236 6.4 0.0 0.00 0.00 0.00 78 1016.7
20260831201511 22 252 8.0 0.0 0.00 0.00 0.00 77 1016.7
20260831201012 22 257 4.8 0.0 0.00 0.00 0.00 77 1016.7
20260831200512 22 247 4.8 0.0 0.00 0.00 0.00 75 1016.8
20260831200011 22 252 4.8 0.0 0.00 0.00 0.00 76 1016.7
20260831195513 22 267 3.2 0.0 0.00 0.00 0.00 76 1016.8
20260831195010 22 302 4.8 0.0 0.00 0.00 0.00 73 1016.9
20260831194511 22 303 4.8 0.0 0.00 0.00 0.00 75 1016.8
20260831194009 22 275 1.6 0.0 0.00 0.00 0.00 75 1016.9
20260831193510 22 284 1.6 0.0 0.00 0.00 0.00 75 1016.9
20260831193009 22 284 3.2 0.0 0.00 0.00 0.00 73 1016.9
20260831192508 22 285 3.2 0.0 0.00 0.00 0.00 74 1016.9
20260831192009 22 285 4.8 0.0 0.00 0.00 0.00 74 1016.9
20260831191508 22 284 4.8 0.0 0.00 0.00 0.00 75 1017.0
20260831191008 22 291 6.4 0.0 0.00 0.00 0.00 75 1017.0
20260831190507 22 293 6.4 0.0 0.00 0.00 0.00 74 1017.1
20260831190007 22 292 6.4 0.0 0.00 0.00 0.00 72 1017.1
20260831185506 22 290 6.4 0.0 0.00 0.00 0.00 73 1017.3
20260831185005 22 298 6.4 0.0 0.00 0.00 0.00 72 1017.4
20260831184505 22 304 6.4 0.0 0.00 0.00 0.00 71 1017.5
20260831184005 22 323 6.4 0.0 0.00 0.00 0.00 74 1017.6
20260831183505 22 319 6.4 0.0 0.00 0.00 0.00 74 1017.6
20260831183005 22 321 6.4 0.0 0.00 0.00 0.00 74 1017.7
20260831182504 22 323 8.0 0.0 0.00 0.00 0.00 75 1017.7
20260831182004 22 316 9.7 0.0 0.00 0.00 0.00 73 1017.9
20260831181504 22 306 9.7 0.0 0.00 0.00 0.00 75 1017.9
20260831181004 22 306 9.7 0.0 0.00 0.00 0.00 72 1017.9
20260831180504 22 292 8.0 0.0 0.00 0.00 0.00 71 1017.9
20260831180003 22 286 9.7 0.0 0.00 0.00 0.00 73 1017.8
20260831175504 23 290 9.7 0.0 0.00 0.00 0.00 73 1017.9
20260831175003 23 281 11.3 0.0 0.00 0.00 0.00 74 1017.9
20260831174502 23 265 9.7 0.0 0.00 0.00 0.00 76 1017.9
20260831174002 22 255 11.3 0.0 0.00 0.00 0.00 75 1017.9
20260831173601 22 271 12.9 0.0 0.00 0.00 0.00 73 1018.0
20260831173100 22 271 12.9 0.0 0.00 0.00 0.00 74 1018.1
20260831172559 22 265 12.9 0.0 0.00 0.00 0.00 77 1018.2
20260831172057 22 273 11.3 0.0 0.00 0.00 0.00 78 1018.2
20260831171558 22 286 9.7 0.0 0.00 0.00 0.00 76 1018.2
20260831171055 22 283 9.7 0.0 0.00 0.00 0.00 75 1018.3
20260831170555 21 284 8.0 0.0 0.00 0.00 0.00 77 1018.2
20260831170053 21 294 6.4 0.0 0.00 0.00 0.00 76 1018.1
20260831165557 21 294 8.0 0.0 0.00 0.00 0.00 78 1018.2
20260831165053 21 294 9.7 0.0 0.00 0.00 0.00 77 1018.3
20260831164555 21 279 9.7 0.0 0.00 0.00 0.00 81 1018.3
20260831164054 21 285 8.0 0.0 0.00 0.00 0.00 81 1018.6
20260831163552 21 301 8.0 0.0 0.00 0.00 0.00 79 1018.8
20260831163051 21 306 9.7 0.0 0.00 0.00 0.00 78 1018.8
20260831162552 21 284 9.7 0.0 0.00 0.00 0.00 80 1018.8
20260831162050 21 281 9.7 0.0 0.00 0.00 0.00 81 1018.8
20260831161548 21 281 11.3 0.0 0.00 0.00 0.00 83 1018.8
20260831161049 21 286 9.7 0.0 0.00 0.00 0.00 82 1018.9
20260831160546 20 284 8.0 0.0 0.00 0.00 0.00 83 1018.8
20260831160045 20 264 8.0 0.0 0.00 0.00 0.00 85 1018.8
20260831155545 20 285 6.4 0.0 0.00 0.00 0.00 83 1019.1
20260831155045 20 292 6.4 0.0 0.00 0.00 0.00 83 1018.9
20260831154545 20 301 4.8 0.0 0.00 0.00 0.00 82 1019.0
20260831154045 20 302 6.4 0.0 0.00 0.00 0.00 81 1019.0
20260831153547 20 300 6.4 0.0 0.00 0.00 0.00 83 1019.1
20260831153043 20 300 8.0 0.0 0.00 0.00 0.00 82 1019.2
20260831152544 20 283 9.7 0.0 0.00 0.00 0.00 83 1019.2
20260831152042 20 288 9.7 0.0 0.00 0.00 0.00 82 1019.3
20260831151542 20 288 8.0 0.0 0.00 0.00 0.00 84 1019.3
20260831151041 20 296 8.0 0.0 0.00 0.00 0.00 83 1019.2
20260831150540 20 293 8.0 0.0 0.00 0.00 0.00 84 1019.4
20260831150038 19 287 8.0 0.0 0.00 0.00 0.00 86 1019.4
20260831145540 19 275 8.0 0.0 0.00 0.00 0.00 86 1019.4
20260831145036 19 277 6.4 0.0 0.00 0.00 0.00 88 1019.3
20260831144535 18 270 4.8 0.0 0.00 0.00 0.00 88 1019.2
20260831144034 18 284 3.2 0.0 0.00 0.00 0.00 88 1019.1
20260831143535 18 284 3.2 0.0 0.00 0.00 0.00 89 1019.1
20260831143039 18 284 4.8 0.0 0.00 0.00 0.00 89 1019.2
20260831142534 18 303 3.2 0.0 0.00 0.00 0.00 89 1019.3
20260831142034 18 319 3.2 0.0 0.00 0.00 0.00 91 1019.1
20260831141533 17 319 3.2 0.0 0.00 0.00 0.00 91 1019.2
20260831141033 17 319 3.2 0.0 0.00 0.00 0.00 91 1019.3
20260831140535 17 319 3.2 0.0 0.00 0.00 0.00 91 1019.3
20260831140034 17 319 3.2 0.0 0.00 0.00 0.00 92 1019.3
20260831135533 17 319 3.2 0.0 0.00 0.00 0.00 94 1019.4
20260831135033 17 337 3.2 0.0 0.00 0.00 0.00 93 1019.3
20260831134533 17 340 3.2 0.0 0.00 0.00 0.00 94 1019.1
20260831134032 17 332 3.2 0.0 0.00 0.00 0.00 94 1019.2
20260831133533 17 331 3.2 0.0 0.00 0.00 0.00 94 1019.3
20260831133032 17 334 4.8 0.0 0.00 0.00 0.00 94 1019.3
20260831132532 17 334 6.4 0.0 0.00 0.00 0.00 94 1019.4
20260831132032 16 331 4.8 0.0 0.00 0.00 0.00 95 1019.3
20260831131543 16 9 1.6 0.0 0.00 0.00 0.00 94 1019.4
20260831131033 16 9 1.6 0.0 0.00 0.00 0.00 95 1019.4
20260831130531 16 5 1.6 0.0 0.00 0.00 0.00 95 1019.5
20260831130034 16 16 1.6 0.0 0.00 0.00 0.00 95 1019.4
20260831125531 16 80 1.6 0.0 0.00 0.00 0.00 95 1019.5
20260831125033 16 82 3.2 0.0 0.00 0.00 0.00 95 1019.4
20260831124531 16 28 3.2 0.0 0.00 0.00 0.00 95 1019.5
20260831124031 16 37 4.8 0.0 0.00 0.00 0.00 95 1019.5
20260831123530 16 342 4.8 0.0 0.00 0.00 0.00 95 1019.4
20260831123030 16 9 1.6 0.0 0.00 0.00 0.00 96 1019.5
20260831122530 16 52 1.6 0.0 0.00 0.00 0.00 96 1019.5
20260831122030 16 105 3.2 0.0 0.00 0.00 0.00 96 1019.5
20260831121531 16 106 3.2 0.0 0.00 0.00 0.00 96 1019.5
20260831121031 16 80 3.2 0.0 0.00 0.00 0.00 96 1019.5
20260831120529 16 81 3.2 0.0 0.00 0.00 0.00 96 1019.5
20260831120028 16 102 3.2 0.0 0.00 0.00 0.00 96 1019.5
20260831115528 15 101 4.8 0.0 0.00 0.00 0.00 96 1019.5
20260831115032 15 97 4.8 0.0 0.00 0.00 0.00 96 1019.6
20260831114527 15 80 4.8 0.0 0.00 0.00 0.00 96 1019.5
20260831114027 15 105 4.8 0.0 0.00 0.00 0.00 96 1019.4
20260831113527 15 114 6.4 0.0 0.00 0.00 0.00 96 1019.3
20260831113026 15 119 4.8 0.0 0.00 0.00 0.00 96 1019.3
20260831112526 15 134 3.2 0.0 0.00 0.00 0.00 96 1019.3
20260831112025 14 134 4.8 0.0 0.00 0.00 0.00 95 1019.3
20260831111526 14 134 3.2 0.0 0.00 0.00 0.00 96 1019.3
20260831111025 14 133 0.0 0.0 0.00 0.00 0.00 95 1019.2
20260831110524 14 133 0.0 0.0 0.00 0.00 0.00 95 1019.2
20260831110026 14 133 3.2 0.0 0.00 0.00 0.00 95 1019.1
20260831105523 14 133 6.4 0.0 0.00 0.00 0.00 95 1019.0
20260831105022 13 132 6.4 0.0 0.00 0.00 0.00 94 1019.0
20260831104527 13 133 6.4 0.0 0.00 0.00 0.00 94 1018.9
20260831104024 13 135 4.8 0.0 0.00 0.00 0.00 94 1018.8
20260831103525 13 135 4.8 0.0 0.00 0.00 0.00 94 1018.8
20260831103022 13 132 6.4 0.0 0.00 0.00 0.00 93 1018.7
20260831102519 13 131 3.2 0.0 0.00 0.00 0.00 93 1018.6
20260831102019 14 130 1.6 0.0 0.00 0.00 0.00 93 1018.7
20260831101519 14 130 3.2 0.0 0.00 0.00 0.00 93 1018.7
20260831101017 14 130 4.8 0.0 0.00 0.00 0.00 93 1018.7
20260831100518 14 130 3.2 0.0 0.00 0.00 0.00 93 1018.7
20260831100016 14 130 0.0 0.0 0.00 0.00 0.00 93 1018.6
20260831095516 14 130 1.6 0.0 0.00 0.00 0.00 93 1018.6
20260831095015 14 130 1.6 0.0 0.00 0.00 0.00 94 1018.5
20260831094516 14 128 1.6 0.0 0.00 0.00 0.00 94 1018.4
20260831094015 14 129 1.6 0.0 0.00 0.00 0.00 94 1018.4
20260831093516 14 130 0.0 0.0 0.00 0.00 0.00 93 1018.4
20260831093014 15 129 0.0 0.0 0.00 0.00 0.00 93 1018.3
20260831092513 15 126 0.0 0.0 0.00 0.00 0.00 93 1018.4
20260831092012 15 126 0.0 0.0 0.00 0.00 0.00 94 1018.3
20260831091511 15 126 1.6 0.0 0.00 0.00 0.00 94 1018.2
20260831091012 15 126 3.2 0.0 0.00 0.00 0.00 94 1018.1
20260831090513 15 127 4.8 0.0 0.00 0.00 0.00 93 1018.0
20260831090011 15 127 6.4 0.0 0.00 0.00 0.00 94 1018.0
20260831085510 15 125 6.4 0.0 0.00 0.00 0.00 93 1018.1
20260831085011 15 144 6.4 0.0 0.00 0.00 0.00 93 1018.1
20260831084510 15 129 6.4 0.0 0.00 0.00 0.00 93 1018.1
20260831084009 15 142 4.8 0.0 0.00 0.00 0.00 93 1018.1
20260831083508 15 144 3.2 0.0 0.00 0.00 0.00 93 1018.2
20260831083011 15 141 3.2 0.0 0.00 0.00 0.00 93 1018.2
20260831082508 15 132 0.0 0.0 0.00 0.00 0.00 93 1018.2
20260831082008 15 167 0.0 0.0 0.00 0.00 0.00 93 1018.2
20260831081507 15 167 1.6 0.0 0.00 0.00 0.00 92 1018.2
20260831081008 15 157 3.2 0.0 0.00 0.00 0.00 92 1018.1
20260831080508 15 144 4.8 0.0 0.00 0.00 0.00 92 1018.0
20260831080004 15 144 4.8 0.0 0.00 0.00 0.00 92 1017.9
20260831075503 15 138 4.8 0.0 0.00 0.00 0.00 92 1017.8
20260831075005 15 135 6.4 0.0 0.00 0.00 0.00 92 1017.8
20260831074505 15 116 6.4 0.0 0.00 0.00 0.00 92 1017.7
20260831074004 15 128 8.0 0.0 0.00 0.00 0.00 92 1017.7
20260831073503 15 126 8.0 0.0 0.00 0.00 0.00 91 1017.6
20260831073004 15 129 6.4 0.0 0.00 0.00 0.00 91 1017.7
20260831072500 15 134 4.8 0.0 0.00 0.00 0.00 91 1017.7
20260831072100 15 153 6.4 0.0 0.00 0.00 0.00 91 1017.7
20260831071600 15 155 8.0 0.0 0.00 0.00 0.00 91 1017.7
20260831071059 16 136 6.4 0.0 0.00 0.00 0.00 90 1017.7
20260831070559 16 143 6.4 0.0 0.00 0.00 0.00 90 1017.7
20260831070058 16 134 8.0 0.0 0.00 0.00 0.00 90 1017.8
20260831065557 16 129 6.4 0.0 0.00 0.00 0.00 90 1017.8
20260831065056 16 132 6.4 0.0 0.00 0.00 0.00 89 1017.8
20260831064555 16 132 6.4 0.0 0.00 0.00 0.00 89 1017.7
20260831064054 16 142 4.8 0.0 0.00 0.00 0.00 89 1017.7
20260831063553 16 132 4.8 0.0 0.00 0.00 0.00 88 1017.8
20260831063052 17 130 4.8 0.0 0.00 0.00 0.00 88 1017.8
20260831062552 17 128 6.4 0.0 0.00 0.00 0.00 87 1017.8
20260831062051 17 127 4.8 0.0 0.00 0.00 0.00 87 1017.7
20260831061551 17 123 3.2 0.0 0.00 0.00 0.00 86 1017.7
20260831061052 17 122 3.2 0.0 0.00 0.00 0.00 86 1017.7
20260831060550 18 121 3.2 0.0 0.00 0.00 0.00 85 1017.6
20260831060057 18 75 6.4 0.0 0.00 0.00 0.00 85 1017.6
20260831055553 18 64 8.0 0.0 0.00 0.00 0.00 87 1017.5
20260831055050 18 355 6.4 0.0 0.00 0.00 0.00 86 1017.5
20260831054550 18 347 8.0 0.0 0.00 0.00 0.00 87 1017.4
20260831054051 18 338 8.0 0.0 0.00 0.00 0.00 86 1017.5
20260831053550 18 344 9.7 0.0 0.00 0.00 0.00 86 1017.5
20260831053049 18 337 8.0 0.0 0.00 0.00 0.00 86 1017.6
20260831052548 18 329 8.0 0.0 0.00 0.00 0.00 86 1017.6
20260831052049 18 330 8.0 0.0 0.00 0.00 0.00 86 1017.7
20260831051553 18 5 8.0 0.0 0.00 0.00 0.00 87 1017.8
20260831051046 18 340 11.3 0.0 0.00 0.00 0.00 88 1017.8
20260831050545 17 349 12.9 0.0 0.00 0.00 0.00 89 1017.8
20260831050044 17 336 11.3 0.0 0.00 0.00 0.00 92 1017.7
20260831045544 17 311 9.7 0.0 0.00 0.00 0.00 92 1017.8
20260831045043 17 297 11.3 0.0 0.00 0.00 0.00 92 1017.8
20260831044544 17 282 12.9 0.0 0.00 0.00 0.00 92 1017.7
20260831044041 17 250 14.5 0.0 0.00 0.00 0.00 92 1017.7
20260831043542 17 265 14.5 0.0 0.00 0.00 0.00 92 1017.6
20260831043040 17 299 14.5 0.0 0.00 0.00 0.00 92 1017.6
20260831042541 17 270 14.5 0.0 0.00 0.00 0.00 92 1017.6
20260831042040 17 257 16.1 0.0 0.00 0.00 0.00 92 1017.5
20260831041630 17 258 16.1 0.0 0.00 0.00 0.00 92 1017.5
20260831041039 17 262 14.5 0.0 0.00 0.00 0.00 91 1017.5
20260831040537 17 242 12.9 0.0 0.00 0.00 0.00 91 1017.6
20260831040036 17 254 12.9 0.0 0.00 0.00 0.00 91 1017.6
20260831035536 17 252 14.5 0.0 0.00 0.00 0.00 91 1017.6
20260831035040 17 252 14.5 0.0 0.00 0.00 0.00 91 1017.6
20260831034536 17 252 14.5 0.0 0.00 0.00 0.00 91 1017.6
20260831034035 17 248 16.1 0.0 0.00 0.00 0.00 91 1017.7
20260831033535 17 260 16.1 0.0 0.00 0.00 0.00 90 1017.7
20260831033035 17 249 17.7 0.0 0.00 0.00 0.00 89 1017.8
20260831032534 17 257 11.3 0.0 0.00 0.00 0.00 89 1017.7
20260831032038 17 243 1.6 0.0 0.00 0.00 0.00 88 1017.7
20260831031535 17 173 0.0 0.0 0.00 0.00 0.00 88 1017.8
20260831031036 17 173 1.6 0.0 0.00 0.00 0.00 88 1017.8
20260831030538 17 211 3.2 0.0 0.00 0.00 0.00 87 1017.7
20260831030036 17 242 3.2 0.0 0.00 0.00 0.00 87 1017.7
20260831025534 18 221 4.8 0.0 0.00 0.00 0.00 87 1017.9
20260831025034 18 227 8.0 0.0 0.00 0.00 0.00 87 1017.9
20260831024540 18 257 8.0 0.0 0.00 0.00 0.00 87 1017.8
20260831024035 18 245 9.7 0.0 0.00 0.00 0.00 86 1017.8
20260831023536 18 252 8.0 0.0 0.00 0.00 0.00 86 1017.8
20260831023033 18 248 8.0 0.0 0.00 0.00 0.00 86 1017.7
20260831022532 18 234 9.7 0.0 0.00 0.00 0.00 86 1017.8
20260831022035 18 216 9.7 0.0 0.00 0.00 0.00 86 1017.8
20260831021542 18 223 6.4 0.0 0.00 0.00 0.00 86 1017.7
20260831021033 18 233 6.4 0.0 0.00 0.00 0.00 86 1017.8
20260831020535 18 224 6.4 0.0 0.00 0.00 0.00 86 1017.8
20260831020034 18 225 6.4 0.0 0.00 0.00 0.00 86 1017.8
20260831015532 18 223 4.8 0.0 0.00 0.00 0.00 85 1017.8
20260831015032 18 197 3.2 0.0 0.00 0.00 0.00 85 1017.7
20260831014532 18 217 3.2 0.0 0.00 0.00 0.00 85 1017.8
20260831014032 18 215 3.2 0.0 0.00 0.00 0.00 85 1017.7
20260831013532 18 219 1.6 0.0 0.00 0.00 0.00 85 1017.7
20260831013031 18 213 0.0 0.0 0.00 0.00 0.00 85 1017.7
20260831012531 18 220 1.6 0.0 0.00 0.00 0.00 85 1017.7
20260831012031 18 223 3.2 0.0 0.00 0.00 0.00 85 1017.7
20260831011544 18 213 4.8 0.0 0.00 0.00 0.00 85 1017.6
20260831011031 18 225 4.8 0.0 0.00 0.00 0.00 84 1017.5
20260831010530 18 226 8.0 0.0 0.00 0.00 0.00 85 1017.5
20260831010033 18 227 11.3 0.0 0.00 0.00 0.00 85 1017.4
20260831005531 18 249 12.9 0.0 0.00 0.00 0.00 86 1017.3
20260831005032 18 255 14.5 0.0 0.00 0.00 0.00 86 1017.2
20260831004530 18 247 14.5 0.0 0.00 0.00 0.00 86 1017.0
20260831004029 18 236 14.5 0.0 0.00 0.00 0.00 86 1017.1
20260831003533 19 263 14.5 0.0 0.00 0.00 0.00 86 1017.0
20260831003034 19 257 16.1 0.0 0.00 0.00 0.00 86 1016.9
20260831002529 19 275 17.7 0.0 0.00 0.00 0.00 86 1016.9
20260831002030 19 277 17.7 0.0 0.00 0.00 0.00 85 1016.9
20260831001532 19 282 19.3 0.0 0.00 0.00 0.00 85 1016.9
20260831001031 19 275 20.9 0.0 0.00 0.00 0.00 86 1016.7
20260831000529 19 265 20.9 0.0 0.00 0.00 0.00 86 1016.7
20260831000032 19 266 20.9 0.0 0.00 0.00 0.00 86 1016.7
20260830235529 19 277 20.9 0.0 0.00 0.00 0.00 86 1016.3
20260830235028 19 271 20.9 0.0 0.00 0.00 0.00 85 1016.4
20260830234528 19 261 19.3 0.0 0.00 0.00 0.00 85 1016.4
20260830234030 19 264 19.3 0.0 0.00 0.00 0.00 85 1016.2
20260830233528 19 241 19.3 0.0 0.00 0.00 0.00 86 1016.2
20260830233027 19 360 19.3 0.0 0.00 0.00 0.00 85 1016.3
20260830232527 19 264 20.9 0.0 0.00 0.00 0.00 85 1016.2
20260830232028 19 266 20.9 0.0 0.00 0.00 0.00 84 1016.2
20260830231527 19 256 17.7 0.0 0.00 0.00 0.00 85 1016.1
20260830231031 19 280 17.7 0.0 0.00 0.00 0.00 84 1016.1
20260830230526 19 275 19.3 0.0 0.00 0.00 0.00 84 1016.1
20260830230027 19 267 19.3 0.0 0.00 0.00 0.00 84 1016.1
20260830225526 19 268 16.1 0.0 0.00 0.00 0.00 85 1016.2
20260830225026 19 260 11.3 0.0 0.00 0.00 0.00 84 1016.2
20260830224526 19 244 11.3 0.0 0.00 0.00 0.00 85 1016.1
20260830224028 19 244 12.9 0.0 0.00 0.00 0.00 85 1016.1
20260830223526 19 247 16.1 0.0 0.00 0.00 0.00 85 1016.1
20260830223026 19 250 19.3 0.0 0.00 0.00 0.00 83 1016.1
20260830222524 20 271 20.9 0.0 0.00 0.00 0.00 84 1016.1
20260830222024 19 270 20.9 0.0 0.00 0.00 0.00 84 1016.1
20260830221524 19 284 20.9 0.0 0.00 0.00 0.00 83 1016.2
20260830221024 19 281 20.9 0.0 0.00 0.00 0.00 83 1016.2
20260830220524 19 281 19.3 0.0 0.00 0.00 0.00 83 1016.3
20260830220024 20 288 19.3 0.0 0.00 0.00 0.00 82 1016.3
20260830215524 19 264 16.1 0.0 0.00 0.00 0.00 83 1016.3
20260830215023 19 270 12.9 0.0 0.00 0.00 0.00 81 1016.3
20260830214523 19 281 12.9 0.0 0.00 0.00 0.00 81 1016.3
20260830214024 20 294 16.1 0.0 0.00 0.00 0.00 82 1016.3
20260830213523 20 311 17.7 0.0 0.00 0.00 0.00 81 1016.3
20260830213031 20 299 19.3 0.0 0.00 0.00 0.00 81 1016.4
20260830212523 20 307 20.9 0.0 0.00 0.00 0.00 81 1016.3
20260830212022 20 323 20.9 0.0 0.00 0.00 0.00 81 1016.2
20260830211522 20 311 24.1 0.0 0.00 0.00 0.00 78 1016.1
20260830211022 20 292 27.4 0.0 0.00 0.00 0.00 80 1016.1
20260830210521 21 292 29.0 0.0 0.00 0.00 0.00 80 1016.2
20260830210024 21 276 30.6 0.0 0.00 0.00 0.00 80 1016.2
20260830205521 21 288 30.6 0.0 0.00 0.00 0.00 78 1016.1
20260830205020 21 273 30.6 0.0 0.00 0.00 0.00 77 1016.0
20260830204520 22 282 32.2 0.0 0.00 0.00 0.00 77 1016.0
20260830204020 22 275 29.0 0.0 0.00 0.00 0.00 77 1015.8
20260830203520 22 265 24.1 0.0 0.00 0.00 0.00 79 1015.9
20260830203019 22 247 19.3 0.0 0.00 0.00 0.00 78 1015.8
20260830202519 22 242 14.5 0.0 0.00 0.00 0.00 75 1015.7